Location: Recife
(8.0585°S, 34.8848°W)
Time: 11:53:37
(UTC-03:00)

Courier 1B - Pass Details

Date: 15 April 2026
Orbit: 962 x 1209 km, 28.3° (Epoch: 7 May)

Event Time Altitude Azimuth Distance (km) Brightness Sun altitude
Rises 16:51:38 0° 263° (W) 3,808 12.3 5.4°
Reaches altitude 10° 16:54:54 10° 275° (W) 2,811 12.6 4.6°
Maximum altitude 17:00:19 25° 329° (NNW) 1,870 9.7 3.3°
Drops below altitude 10° 17:05:33 10° 22° (NNE) 2,701 9.7 2.0°
Sets 17:08:39 0° 35° (NE) 3,630 10.2 1.3°
